Time,TemperatureF,DewpointF,PressureIn,WindDirection,WindDirectionDegrees,WindSpeedMPH,WindSpeedGustMPH,Humidity,HourlyPrecipIn,Conditions,Clouds,dailyrainin,SoftwareType,DateUTC
2013-01-26 00:03:00,68.0,62.0,30.17,SW,226,1.0,3.0,80,0.00,,,0.00,,2013-01-26 05:03:00,
2013-01-26 00:23:00,68.0,62.0,30.17,SW,226,1.0,3.0,80,0.00,,,0.00,,2013-01-26 05:23:00,
2013-01-26 00:33:00,68.0,62.0,30.17,SW,226,1.0,3.0,80,0.00,,,0.00,,2013-01-26 05:33:00,
2013-01-26 00:42:00,68.0,62.0,30.17,SW,226,1.0,3.0,80,0.00,,,0.00,,2013-01-26 05:42:00,
2013-01-26 00:53:00,68.0,62.0,30.17,SW,226,1.0,3.0,80,0.00,,,0.00,,2013-01-26 05:53:00,
2013-01-26 01:21:00,68.0,62.0,30.17,SW,224,1.0,4.0,81,0.00,,,0.00,,2013-01-26 06:21:00,
2013-01-26 01:32:00,68.0,62.0,30.17,SW,224,1.0,4.0,81,0.00,,,0.00,,2013-01-26 06:32:00,
2013-01-26 01:42:00,68.0,62.0,30.17,SW,224,1.0,4.0,81,0.00,,,0.00,,2013-01-26 06:42:00,
2013-01-26 01:52:00,68.0,62.0,30.17,SW,224,1.0,4.0,81,0.00,,,0.00,,2013-01-26 06:52:00,
2013-01-26 02:02:00,68.0,62.0,30.17,SW,224,1.0,4.0,81,0.00,,,0.00,,2013-01-26 07:02:00,
2013-01-26 02:33:00,68.0,62.0,30.16,SSW,192,1.0,3.0,81,0.00,,,0.00,,2013-01-26 07:33:00,
2013-01-26 02:42:00,68.0,62.0,30.16,SSW,192,1.0,3.0,81,0.00,,,0.00,,2013-01-26 07:42:00,
2013-01-26 02:52:00,68.0,62.0,30.16,SSW,192,1.0,3.0,81,0.00,,,0.00,,2013-01-26 07:52:00,
2013-01-26 03:02:00,68.0,62.0,30.16,SSW,192,1.0,3.0,81,0.00,,,0.00,,2013-01-26 08:02:00,
2013-01-26 03:22:00,68.0,62.0,30.15,SSW,194,1.0,4.0,81,0.00,,,0.00,,2013-01-26 08:22:00,
2013-01-26 03:32:00,68.0,62.0,30.15,SSW,194,1.0,4.0,81,0.00,,,0.00,,2013-01-26 08:32:00,
2013-01-26 03:42:00,68.0,62.0,30.15,SSW,194,1.0,4.0,81,0.00,,,0.00,,2013-01-26 08:42:00,
2013-01-26 03:54:00,68.0,62.0,30.15,SSW,194,1.0,4.0,81,0.00,,,0.00,,2013-01-26 08:54:00,
2013-01-26 04:02:00,68.0,62.0,30.15,SSW,194,1.0,4.0,81,0.00,,,0.00,,2013-01-26 09:02:00,
2013-01-26 04:22:00,68.0,62.0,30.14,SSW,200,1.0,6.0,81,0.00,,,0.00,,2013-01-26 09:22:00,
2013-01-26 04:32:00,68.0,62.0,30.14,SSW,200,1.0,6.0,81,0.00,,,0.00,,2013-01-26 09:32:00,
2013-01-26 04:42:00,68.0,62.0,30.14,SSW,200,1.0,6.0,81,0.00,,,0.00,,2013-01-26 09:42:00,
2013-01-26 04:52:00,68.0,62.0,30.14,SSW,200,1.0,6.0,81,0.00,,,0.00,,2013-01-26 09:52:00,
2013-01-26 05:01:00,68.0,62.0,30.14,SSW,200,1.0,6.0,81,0.00,,,0.00,,2013-01-26 10:01:00,
2013-01-26 05:21:00,68.0,62.0,30.14,SSW,194,2.0,6.0,82,0.00,,,0.00,,2013-01-26 10:21:00,
2013-01-26 05:32:00,68.0,62.0,30.14,SSW,194,2.0,6.0,82,0.00,,,0.00,,2013-01-26 10:32:00,
2013-01-26 05:42:00,68.0,62.0,30.14,SSW,194,2.0,6.0,82,0.00,,,0.00,,2013-01-26 10:42:00,
2013-01-26 05:52:00,68.0,62.0,30.14,SSW,194,2.0,6.0,82,0.00,,,0.00,,2013-01-26 10:52:00,
2013-01-26 06:01:00,68.0,62.0,30.14,SSW,194,2.0,6.0,82,0.00,,,0.00,,2013-01-26 11:01:00,
2013-01-26 06:22:00,68.0,62.0,30.15,South,186,5.0,8.0,81,0.00,,,0.00,,2013-01-26 11:22:00,
2013-01-26 06:32:00,68.0,62.0,30.15,South,186,5.0,8.0,81,0.00,,,0.00,,2013-01-26 11:32:00,
2013-01-26 06:42:00,68.0,62.0,30.15,South,186,5.0,8.0,81,0.00,,,0.00,,2013-01-26 11:42:00,
2013-01-26 06:52:00,68.0,62.0,30.15,South,186,5.0,8.0,81,0.00,,,0.00,,2013-01-26 11:52:00,
2013-01-26 07:02:00,68.0,62.0,30.15,South,186,5.0,8.0,81,0.00,,,0.00,,2013-01-26 12:02:00,
2013-01-26 07:03:00,68.0,62.0,30.16,South,180,1.0,8.0,82,0.00,,,0.00,,2013-01-26 12:03:00,
2013-01-26 07:23:00,68.0,62.0,30.16,South,180,1.0,8.0,82,0.00,,,0.00,,2013-01-26 12:23:00,
2013-01-26 07:33:00,68.0,62.0,30.16,South,180,1.0,8.0,82,0.00,,,0.00,,2013-01-26 12:33:00,
2013-01-26 07:42:00,68.0,62.0,30.16,South,180,1.0,8.0,82,0.00,,,0.00,,2013-01-26 12:42:00,
2013-01-26 07:53:00,68.0,62.0,30.16,South,180,1.0,8.0,82,0.00,,,0.00,,2013-01-26 12:53:00,
2013-01-26 08:03:00,68.0,62.0,30.17,SSW,204,3.0,7.0,82,0.00,,,0.00,,2013-01-26 13:03:00,
2013-01-26 08:22:00,68.0,62.0,30.17,SSW,204,3.0,7.0,82,0.00,,,0.00,,2013-01-26 13:22:00,
2013-01-26 08:33:00,68.0,62.0,30.17,SSW,204,3.0,7.0,82,0.00,,,0.00,,2013-01-26 13:33:00,
2013-01-26 08:42:00,68.0,62.0,30.17,SSW,204,3.0,7.0,82,0.00,,,0.00,,2013-01-26 13:42:00,
2013-01-26 08:53:00,68.0,62.0,30.17,SSW,204,3.0,7.0,82,0.00,,,0.00,,2013-01-26 13:53:00,
2013-01-26 09:03:00,70.0,63.0,30.19,SSW,194,5.0,12.0,79,0.00,,,0.00,,2013-01-26 14:03:00,
2013-01-26 09:22:00,70.0,63.0,30.19,SSW,194,5.0,12.0,79,0.00,,,0.00,,2013-01-26 14:22:00,
2013-01-26 09:32:00,70.0,63.0,30.19,SSW,194,5.0,12.0,79,0.00,,,0.00,,2013-01-26 14:32:00,
2013-01-26 09:43:00,70.0,63.0,30.19,SSW,194,5.0,12.0,79,0.00,,,0.00,,2013-01-26 14:43:00,
2013-01-26 09:53:00,70.0,63.0,30.19,SSW,194,5.0,12.0,79,0.00,,,0.00,,2013-01-26 14:53:00,
2013-01-26 10:22:00,73.0,64.0,30.19,South,177,5.0,10.0,74,0.00,,,0.00,,2013-01-26 15:22:00,
2013-01-26 10:33:00,73.0,64.0,30.19,South,177,5.0,10.0,74,0.00,,,0.00,,2013-01-26 15:33:00,
2013-01-26 10:43:00,73.0,64.0,30.19,South,177,5.0,10.0,74,0.00,,,0.00,,2013-01-26 15:43:00,
2013-01-26 10:53:00,73.0,64.0,30.19,South,177,5.0,10.0,74,0.00,,,0.00,,2013-01-26 15:53:00,
2013-01-26 11:02:00,73.0,64.0,30.19,South,177,5.0,10.0,74,0.00,,,0.00,,2013-01-26 16:02:00,
2013-01-26 11:03:00,74.0,63.0,30.20,South,188,6.0,16.0,69,0.00,,,0.00,,2013-01-26 16:03:00,
2013-01-26 11:22:00,74.0,63.0,30.20,South,188,6.0,16.0,69,0.00,,,0.00,,2013-01-26 16:22:00,
2013-01-26 11:33:00,74.0,63.0,30.20,South,188,6.0,16.0,69,0.00,,,0.00,,2013-01-26 16:33:00,
2013-01-26 11:43:00,74.0,63.0,30.20,South,188,6.0,16.0,69,0.00,,,0.00,,2013-01-26 16:43:00,
2013-01-26 11:53:00,74.0,63.0,30.20,South,188,6.0,16.0,69,0.00,,,0.00,,2013-01-26 16:53:00,
2013-01-26 12:03:00,75.0,62.0,30.19,SSW,211,4.0,9.0,64,0.00,,,0.00,,2013-01-26 17:03:00,
2013-01-26 12:23:00,75.0,62.0,30.19,SSW,211,4.0,9.0,64,0.00,,,0.00,,2013-01-26 17:23:00,
2013-01-26 12:33:00,75.0,62.0,30.19,SSW,211,4.0,9.0,64,0.00,,,0.00,,2013-01-26 17:33:00,
2013-01-26 12:42:00,75.0,62.0,30.19,SSW,211,4.0,9.0,64,0.00,,,0.00,,2013-01-26 17:42:00,
2013-01-26 12:53:00,75.0,62.0,30.19,SSW,211,4.0,9.0,64,0.00,,,0.00,,2013-01-26 17:53:00,
2013-01-26 13:22:00,75.0,62.0,30.16,North,5,6.0,12.0,64,0.00,,,0.00,,2013-01-26 18:22:00,
2013-01-26 13:33:00,76.0,63.0,30.16,North,5,5.0,13.0,65,0.00,,,0.00,,2013-01-26 18:33:00,
2013-01-26 13:42:00,76.0,63.0,30.16,North,5,5.0,13.0,65,0.00,,,0.00,,2013-01-26 18:42:00,
2013-01-26 13:53:00,76.0,63.0,30.16,North,360,5.0,12.0,64,0.00,,,0.00,,2013-01-26 18:53:00,
2013-01-26 14:03:00,76.0,63.0,30.15,North,5,5.0,10.0,64,0.00,,,0.00,,2013-01-26 19:03:00,
2013-01-26 14:12:00,76.0,63.0,30.15,North,5,5.0,10.0,64,0.00,,,0.00,,2013-01-26 19:12:00,
2013-01-26 14:22:00,76.0,63.0,30.15,North,5,4.0,11.0,64,0.00,,,0.00,,2013-01-26 19:22:00,
2013-01-26 14:32:00,76.0,63.0,30.14,North,5,5.0,12.0,64,0.00,,,0.00,,2013-01-26 19:32:00,
2013-01-26 14:42:00,76.0,63.0,30.14,North,5,5.0,12.0,64,0.00,,,0.00,,2013-01-26 19:42:00,
2013-01-26 14:53:00,76.0,63.0,30.14,North,5,4.0,10.0,64,0.00,,,0.00,,2013-01-26 19:53:00,
2013-01-26 15:02:00,76.0,63.0,30.14,North,5,4.0,10.0,65,0.00,,,0.00,,2013-01-26 20:02:00,
2013-01-26 15:11:00,76.0,63.0,30.14,North,5,4.0,10.0,65,0.00,,,0.00,,2013-01-26 20:11:00,
2013-01-26 15:22:00,75.0,63.0,30.14,North,5,4.0,10.0,66,0.00,,,0.00,,2013-01-26 20:22:00,
2013-01-26 15:32:00,75.0,63.0,30.14,North,5,5.0,15.0,67,0.00,,,0.00,,2013-01-26 20:32:00,
2013-01-26 15:42:00,75.0,63.0,30.14,North,5,5.0,15.0,67,0.00,,,0.00,,2013-01-26 20:42:00,
2013-01-26 15:52:00,74.0,63.0,30.13,North,5,6.0,11.0,69,0.00,,,0.00,,2013-01-26 20:52:00,
2013-01-26 16:02:00,74.0,63.0,30.13,North,5,4.0,10.0,68,0.00,,,0.00,,2013-01-26 21:02:00,
2013-01-26 16:12:00,74.0,63.0,30.13,North,5,4.0,10.0,68,0.00,,,0.00,,2013-01-26 21:12:00,
2013-01-26 16:23:00,75.0,63.0,30.13,North,5,4.0,12.0,66,0.00,,,0.00,,2013-01-26 21:23:00,
2013-01-26 16:32:00,75.0,63.0,30.13,North,5,5.0,12.0,66,0.00,,,0.00,,2013-01-26 21:32:00,
2013-01-26 16:42:00,75.0,63.0,30.13,North,5,5.0,12.0,66,0.00,,,0.00,,2013-01-26 21:42:00,
2013-01-26 16:52:00,75.0,63.0,30.13,North,5,4.0,10.0,67,0.00,,,0.00,,2013-01-26 21:52:00,
2013-01-26 17:02:00,75.0,64.0,30.13,North,5,3.0,9.0,68,0.00,,,0.00,,2013-01-26 22:02:00,
2013-01-26 17:12:00,75.0,64.0,30.13,North,5,3.0,9.0,68,0.00,,,0.00,,2013-01-26 22:12:00,
2013-01-26 17:22:00,74.0,63.0,30.13,North,5,3.0,8.0,69,0.00,,,0.00,,2013-01-26 22:22:00,
2013-01-26 17:32:00,74.0,63.0,30.13,North,5,4.0,11.0,69,0.00,,,0.00,,2013-01-26 22:32:00,
2013-01-26 17:42:00,74.0,63.0,30.13,North,5,4.0,11.0,69,0.00,,,0.00,,2013-01-26 22:42:00,
2013-01-26 17:52:00,73.0,63.0,30.14,North,5,4.0,10.0,72,0.00,,,0.00,,2013-01-26 22:52:00,
2013-01-26 18:02:00,72.0,63.0,30.14,North,5,3.0,8.0,73,0.00,,,0.00,,2013-01-26 23:02:00,
2013-01-26 18:12:00,72.0,63.0,30.14,North,5,3.0,8.0,73,0.00,,,0.00,,2013-01-26 23:12:00,
2013-01-26 18:22:00,72.0,63.0,30.14,North,5,3.0,7.0,74,0.00,,,0.00,,2013-01-26 23:22:00,
2013-01-26 18:32:00,72.0,64.0,30.14,North,5,4.0,8.0,75,0.00,,,0.00,,2013-01-26 23:32:00,
2013-01-26 18:42:00,72.0,64.0,30.14,North,5,4.0,8.0,75,0.00,,,0.00,,2013-01-26 23:42:00,
2013-01-26 18:52:00,71.0,63.0,30.14,North,5,5.0,12.0,76,0.00,,,0.00,,2013-01-26 23:52:00,
2013-01-26 19:02:00,71.0,63.0,30.14,North,5,5.0,11.0,76,0.00,,,0.00,,2013-01-27 00:02:00,
2013-01-26 19:12:00,71.0,63.0,30.14,North,5,5.0,11.0,76,0.00,,,0.00,,2013-01-27 00:12:00,
2013-01-26 19:22:00,71.0,63.0,30.14,North,5,1.0,8.0,76,0.00,,,0.00,,2013-01-27 00:22:00,
2013-01-26 19:32:00,71.0,63.0,30.14,North,5,2.0,6.0,76,0.00,,,0.00,,2013-01-27 00:32:00,
2013-01-26 19:42:00,71.0,63.0,30.14,North,5,2.0,6.0,76,0.00,,,0.00,,2013-01-27 00:42:00,
2013-01-26 19:52:00,70.0,62.0,30.15,North,5,2.0,5.0,77,0.00,,,0.00,,2013-01-27 00:52:00,
2013-01-26 20:01:00,70.0,62.0,30.15,North,5,3.0,8.0,77,0.00,,,0.00,,2013-01-27 01:01:00,
2013-01-26 20:11:00,70.0,62.0,30.15,North,5,3.0,8.0,77,0.00,,,0.00,,2013-01-27 01:11:00,
2013-01-26 20:22:00,71.0,64.0,30.15,North,5,2.0,5.0,79,0.00,,,0.00,,2013-01-27 01:22:00,
2013-01-26 20:32:00,70.0,63.0,30.16,North,5,2.0,5.0,79,0.00,,,0.00,,2013-01-27 01:32:00,
2013-01-26 20:42:00,70.0,63.0,30.16,North,5,2.0,5.0,79,0.00,,,0.00,,2013-01-27 01:42:00,
2013-01-26 20:52:00,70.0,64.0,30.16,North,5,2.0,5.0,80,0.00,,,0.00,,2013-01-27 01:52:00,
2013-01-26 21:01:00,70.0,64.0,30.16,North,5,3.0,6.0,80,0.00,,,0.00,,2013-01-27 02:01:00,
2013-01-26 21:12:00,70.0,64.0,30.16,North,5,3.0,6.0,80,0.00,,,0.00,,2013-01-27 02:12:00,
2013-01-26 21:22:00,70.0,64.0,30.16,North,5,2.0,8.0,81,0.00,,,0.00,,2013-01-27 02:22:00,
2013-01-26 21:32:00,70.0,64.0,30.16,North,360,1.0,5.0,81,0.00,,,0.00,,2013-01-27 02:32:00,
2013-01-26 21:42:00,70.0,64.0,30.16,North,360,1.0,5.0,81,0.00,,,0.00,,2013-01-27 02:42:00,
2013-01-26 21:52:00,70.0,64.0,30.16,North,360,2.0,6.0,81,0.00,,,0.00,,2013-01-27 02:52:00,
2013-01-26 22:02:00,70.0,64.0,30.16,North,5,2.0,6.0,81,0.00,,,0.00,,2013-01-27 03:02:00,
2013-01-26 22:11:00,70.0,64.0,30.16,North,5,2.0,6.0,81,0.00,,,0.00,,2013-01-27 03:11:00,
2013-01-26 22:21:00,70.0,64.0,30.17,North,5,1.0,5.0,81,0.00,,,0.00,,2013-01-27 03:21:00,
2013-01-26 22:32:00,70.0,64.0,30.17,North,5,2.0,5.0,81,0.00,,,0.00,,2013-01-27 03:32:00,
2013-01-26 22:42:00,70.0,64.0,30.17,North,5,2.0,5.0,81,0.00,,,0.00,,2013-01-27 03:42:00,
2013-01-26 22:52:00,70.0,64.0,30.16,North,5,2.0,7.0,81,0.00,,,0.00,,2013-01-27 03:52:00,
2013-01-26 23:02:00,70.0,64.0,30.17,North,5,3.0,7.0,81,0.00,,,0.00,,2013-01-27 04:02:00,
2013-01-26 23:12:00,70.0,64.0,30.17,North,5,3.0,7.0,81,0.00,,,0.00,,2013-01-27 04:12:00,
2013-01-26 23:22:00,70.0,64.0,30.16,North,5,4.0,9.0,80,0.00,,,0.00,,2013-01-27 04:22:00,
2013-01-26 23:32:00,70.0,63.0,30.16,North,5,3.0,6.0,79,0.00,,,0.00,,2013-01-27 04:32:00,
2013-01-26 23:42:00,70.0,63.0,30.16,North,5,3.0,6.0,79,0.00,,,0.00,,2013-01-27 04:42:00,
2013-01-26 23:52:00,70.0,64.0,30.16,North,5,2.0,8.0,80,0.00,,,0.00,,2013-01-27 04:52:00,